When you browse on this site, cookies collect data to enhance your experience and personalize the content and advertising you see.
Visit our Privacy Policy to learn more. By continuing to use the site, you agree to this use of cookies and data.
  • En España
  • Lista de países
  • Para 7 días
  • Temperatura del agua
  • El tiempo en el mapa
  • Informadores
  • user-avatar
    Iniciar sesión

    Tiempo cada hora Arakaka

    Hoy, 25 Mayo, Lunes

    Tiempo Temperatura Precipitaciones Viento Presión Humedad
    00:00 +25°C° 0 mm 1 mps 754 mmHg 92%
    01:00 +22°C° 0 mm 0 mps 753 mmHg 95%
    02:00 +22°C° 0 mm 0 mps 753 mmHg 98%
    03:00 +22°C° 0 mm 0 mps 753 mmHg 98%
    04:00 +22°C° 0 mm 0 mps 753 mmHg 99%
    05:00 +22°C° 0 mm 0 mps 753 mmHg 99%
    06:00 +25°C° 0 mm 1 mps 753 mmHg 93%
    07:00 +27°C° 0 mm 1 mps 754 mmHg 88%
    08:00 +28°C° 0 mm 1 mps 754 mmHg 82%
    09:00 +30°C° 0.1 mm 1 mps 754 mmHg 75%
    10:00 +31°C° 0.1 mm 1 mps 754 mmHg 67%
    11:00 +33°C° 0.1 mm 1 mps 754 mmHg 60%
    12:00 +33°C° 0.4 mm 1 mps 753 mmHg 62%
    13:00 +33°C° 0.4 mm 1 mps 752 mmHg 64%
    14:00 +33°C° 0.4 mm 1 mps 752 mmHg 66%
    15:00 +31°C° 1.4 mm 1 mps 752 mmHg 74%
    16:00 +30°C° 1.4 mm 2 mps 751 mmHg 82%
    17:00 +29°C° 1.4 mm 2 mps 751 mmHg 90%
    18:00 +28°C° 0.2 mm 1 mps 752 mmHg 92%
    19:00 +27°C° 0.2 mm 1 mps 753 mmHg 95%
    20:00 +26°C° 0.2 mm 1 mps 753 mmHg 97%
    21:00 +26°C° 0.1 mm 1 mps 754 mmHg 97%
    22:00 +26°C° 0.1 mm 1 mps 754 mmHg 98%
    23:00 +23°C° 0.1 mm 0 mps 754 mmHg 98%

    Mañana, 26 Mayo, Martes

    Tiempo Temperatura Precipitaciones Viento Presión Humedad
    00:00 +23°C° 0 mm 0 mps 754 mmHg 98%
    01:00 +23°C° 0 mm 0 mps 753 mmHg 98%
    02:00 +23°C° 0 mm 0 mps 753 mmHg 99%
    03:00 +23°C° 0 mm 0 mps 753 mmHg 99%
    04:00 +22°C° 0 mm 0 mps 753 mmHg 99%
    05:00 +24°C° 0 mm 1 mps 753 mmHg 99%
    06:00 +25°C° 0 mm 1 mps 753 mmHg 95%
    07:00 +27°C° 0 mm 1 mps 754 mmHg 91%
    08:00 +28°C° 0 mm 1 mps 754 mmHg 87%
    09:00 +30°C° 0 mm 2 mps 754 mmHg 76%
    10:00 +31°C° 0 mm 2 mps 754 mmHg 66%
    11:00 +34°C° 0 mm 2 mps 754 mmHg 55%
    12:00 +35°C° 0 mm 2 mps 753 mmHg 52%
    13:00 +36°C° 0 mm 2 mps 752 mmHg 49%
    14:00 +37°C° 0 mm 2 mps 751 mmHg 46%
    15:00 +36°C° 0 mm 2 mps 751 mmHg 51%
    16:00 +34°C° 0 mm 2 mps 751 mmHg 57%
    17:00 +32°C° 0 mm 2 mps 751 mmHg 62%
    18:00 +31°C° 0.2 mm 2 mps 752 mmHg 70%
    19:00 +29°C° 0.2 mm 2 mps 752 mmHg 78%
    20:00 +27°C° 0.2 mm 2 mps 753 mmHg 86%
    21:00 +26°C° 0 mm 1 mps 753 mmHg 89%
    22:00 +26°C° 0 mm 1 mps 754 mmHg 92%
    23:00 +25°C° 0 mm 1 mps 754 mmHg 95%

    Pasado mañana, 27 Mayo, Miércoles

    Tiempo Temperatura Precipitaciones Viento Presión Humedad
    00:00 +25°C° 0 mm 1 mps 753 mmHg 96%
    01:00 +25°C° 0 mm 1 mps 753 mmHg 97%
    02:00 +25°C° 0 mm 1 mps 752 mmHg 98%
    03:00 +23°C° 0 mm 0 mps 753 mmHg 99%
    04:00 +23°C° 0 mm 0 mps 753 mmHg 99%
    05:00 +22°C° 0 mm 0 mps 753 mmHg 99%
    06:00 +25°C° 0.3 mm 1 mps 753 mmHg 96%
    07:00 +27°C° 0.3 mm 1 mps 754 mmHg 92%
    08:00 +28°C° 0.3 mm 1 mps 754 mmHg 89%
    09:00 +28°C° 0.9 mm 1 mps 754 mmHg 86%
    10:00 +29°C° 0.9 mm 1 mps 754 mmHg 83%
    11:00 +30°C° 0.9 mm 2 mps 754 mmHg 80%
    12:00 +30°C° 0.9 mm 2 mps 753 mmHg 80%
    13:00 +30°C° 0.9 mm 2 mps 752 mmHg 80%
    14:00 +31°C° 0.9 mm 1 mps 752 mmHg 79%
    15:00 +30°C° 0.4 mm 1 mps 752 mmHg 82%
    16:00 +30°C° 0.4 mm 1 mps 751 mmHg 85%
    17:00 +29°C° 0.4 mm 1 mps 751 mmHg 87%
    18:00 +28°C° 0 mm 1 mps 752 mmHg 90%
    19:00 +27°C° 0 mm 1 mps 752 mmHg 92%
    20:00 +25°C° 0 mm 1 mps 753 mmHg 95%
    21:00 +25°C° 0 mm 1 mps 753 mmHg 96%
    22:00 +25°C° 0 mm 1 mps 753 mmHg 97%
    23:00 +24°C° 0 mm 1 mps 753 mmHg 98%

    28 Mayo, Jueves

    Tiempo Temperatura Precipitaciones Viento Presión Humedad
    00:00 +22°C° 0 mm 0 mps 753 mmHg 98%
    01:00 +22°C° 0 mm 0 mps 752 mmHg 98%
    02:00 +22°C° 0 mm 0 mps 752 mmHg 98%
    03:00 +22°C° 0.1 mm 0 mps 752 mmHg 98%
    04:00 +23°C° 0.1 mm 0 mps 752 mmHg 97%
    05:00 +23°C° 0.1 mm 0 mps 752 mmHg 97%
    06:00 +26°C° 0.1 mm 1 mps 752 mmHg 94%
    07:00 +27°C° 0.1 mm 1 mps 753 mmHg 92%
    08:00 +28°C° 0.1 mm 2 mps 753 mmHg 89%
    09:00 +29°C° 0.2 mm 2 mps 753 mmHg 80%
    10:00 +31°C° 0.2 mm 2 mps 753 mmHg 71%
    11:00 +32°C° 0.2 mm 2 mps 753 mmHg 62%
    12:00 +31°C° 0.6 mm 2 mps 752 mmHg 67%
    13:00 +31°C° 0.6 mm 2 mps 752 mmHg 73%
    14:00 +30°C° 0.6 mm 2 mps 751 mmHg 78%
    15:00 +30°C° 0.5 mm 2 mps 751 mmHg 78%
    16:00 +30°C° 0.5 mm 2 mps 751 mmHg 78%
    17:00 +30°C° 0.5 mm 1 mps 751 mmHg 78%
    18:00 +28°C° 0 mm 1 mps 752 mmHg 81%
    19:00 +27°C° 0 mm 1 mps 752 mmHg 85%
    20:00 +26°C° 0 mm 1 mps 753 mmHg 88%
    21:00 +25°C° 0 mm 1 mps 753 mmHg 90%
    22:00 +25°C° 0 mm 1 mps 753 mmHg 93%
    23:00 +22°C° 0 mm 0 mps 753 mmHg 95%

    29 Mayo, Viernes

    Tiempo Temperatura Precipitaciones Viento Presión Humedad
    00:00 +23°C° 0.1 mm 0 mps 753 mmHg 95%
    01:00 +23°C° 0.1 mm 0 mps 753 mmHg 95%
    02:00 +23°C° 0.1 mm 0 mps 752 mmHg 95%
    03:00 +23°C° 0.2 mm 0 mps 752 mmHg 96%
    04:00 +25°C° 0.2 mm 1 mps 752 mmHg 97%
    05:00 +25°C° 0.2 mm 1 mps 752 mmHg 97%
    06:00 +26°C° 0.1 mm 1 mps 753 mmHg 95%
    07:00 +27°C° 0.1 mm 1 mps 753 mmHg 92%
    08:00 +28°C° 0.1 mm 2 mps 753 mmHg 89%
    09:00 +29°C° 0.3 mm 2 mps 753 mmHg 80%
    10:00 +31°C° 0.3 mm 2 mps 753 mmHg 71%
    11:00 +32°C° 0.3 mm 2 mps 753 mmHg 62%
    12:00 +34°C° 0.6 mm 2 mps 752 mmHg 61%
    13:00 +34°C° 0.6 mm 2 mps 751 mmHg 60%
    14:00 +34°C° 0.6 mm 2 mps 750 mmHg 60%
    15:00 +32°C° 0.8 mm 2 mps 750 mmHg 69%
    16:00 +30°C° 0.8 mm 2 mps 750 mmHg 79%
    17:00 +28°C° 0.8 mm 1 mps 750 mmHg 89%
    18:00 +27°C° 0.5 mm 1 mps 751 mmHg 91%
    19:00 +26°C° 0.5 mm 1 mps 752 mmHg 94%
    20:00 +25°C° 0.5 mm 1 mps 753 mmHg 97%
    21:00 +25°C° 0 mm 1 mps 753 mmHg 97%
    22:00 +25°C° 0 mm 1 mps 753 mmHg 98%
    23:00 +23°C° 0 mm 0 mps 753 mmHg 98%

    30 Mayo, Sábado

    Tiempo Temperatura Precipitaciones Viento Presión Humedad
    00:00 +22°C° 0 mm 0 mps 753 mmHg 98%
    01:00 +22°C° 0 mm 0 mps 752 mmHg 99%
    02:00 +22°C° 0 mm 0 mps 752 mmHg 99%
    03:00 +22°C° 0 mm 0 mps 752 mmHg 99%
    04:00 +22°C° 0 mm 0 mps 752 mmHg 99%
    05:00 +22°C° 0 mm 0 mps 752 mmHg 99%
    06:00 +23°C° 0 mm 0 mps 753 mmHg 96%
    07:00 +26°C° 0 mm 1 mps 753 mmHg 93%
    08:00 +27°C° 0 mm 1 mps 753 mmHg 89%
    09:00 +28°C° 1.2 mm 1 mps 753 mmHg 90%
    10:00 +28°C° 1.2 mm 1 mps 753 mmHg 90%
    11:00 +29°C° 1.2 mm 1 mps 753 mmHg 90%
    12:00 +29°C° 2 mm 1 mps 752 mmHg 90%
    13:00 +29°C° 2 mm 1 mps 752 mmHg 91%
    14:00 +29°C° 2 mm 1 mps 751 mmHg 91%
    15:00 +29°C° 1.6 mm 1 mps 751 mmHg 93%
    16:00 +28°C° 1.6 mm 1 mps 751 mmHg 94%
    17:00 +28°C° 1.6 mm 1 mps 751 mmHg 95%
    18:00 +27°C° 0.8 mm 1 mps 752 mmHg 96%
    19:00 +26°C° 0.8 mm 1 mps 752 mmHg 97%
    20:00 +25°C° 0.8 mm 1 mps 753 mmHg 99%
    21:00 +25°C° 0.4 mm 1 mps 753 mmHg 99%
    22:00 +25°C° 0.4 mm 1 mps 753 mmHg 99%
    23:00 +25°C° 0.4 mm 1 mps 754 mmHg 99%
    Mostrar más